Estación municipal de Cànoves i Samalús (Vallès Oriental, P.N.del Montseny)

Consulta los datos en tiempo real de la estación municipal de Cànoves i Samalús





Hora UTC 21:20
Temperatura 11.5 ºC
Humedad 87.8 %
Presión 1013.1 hPa
Pluja 0.0 mm
Velocidad viento 3.1 km/h
Dirección viento NW
Radiación solar 0.1 W/m²

Webcam

Datos diarios 2026-05-07



Hora UTC (invierno +1h; verano +2h)
Temperatura (ºC) Humedad (%) Presión (hPa) Velocidad viento (km/h) Precipitación (mm) Radiación solar (W/m²)
Hora UTC Aire Humedad Presión Vel. Dir. Vel. Max Dir. Intent. máx 5 min. Rad. Sol.
00:05 11.2 92.5 1012.8 0.7 NNE 0.7 NE 0.0 0.1
00:10 11.0 92.5 1012.8 4.3 E 6.7 ENE 0.0 0.1
00:15 11.0 93.2 1012.8 1.3 ENE 3.5 E 0.0 0.1
00:20 11.2 93.9 1012.8 3.4 N 6.0 NNW 0.0 0.1
00:25 11.4 94.0 1012.8 1.6 NNW 3.9 N 0.0 0.1
00:30 11.3 93.7 1012.8 1.4 NW 3.5 NW 0.0 0.1
00:35 11.2 93.6 1012.7 0.8 NE 2.8 NE 0.0 0.1
00:40 11.0 93.4 1012.7 1.9 NNW 6.0 NNW 0.0 0.1
00:45 10.8 93.4 1012.7 4.3 NW 6.7 NW 0.0 0.1
00:50 10.7 93.7 1012.6 3.3 NW 6.7 WNW 0.0 0.1
00:55 10.7 93.8 1012.5 1.7 N 4.6 ENE 0.0 0.1
01:00 10.6 93.7 1012.5 3.5 NE 4.9 NE 0.0 0.1
01:05 10.5 93.8 1012.5 4.0 N 5.3 N 0.0 0.1
01:10 10.4 94.1 1012.5 2.2 NNW 5.3 NE 0.0 0.1
01:15 10.4 94.2 1012.5 2.9 NW 4.9 NW 0.0 0.1
01:20 10.4 94.3 1012.5 3.8 NW 5.3 NW 0.0 0.1
01:25 10.4 94.5 1012.5 3.2 NNW 4.6 NW 0.0 0.1
01:30 10.5 94.6 1012.4 2.2 N 3.9 NNE 0.0 0.1
01:35 10.6 94.8 1012.5 1.1 N 3.2 NNE 0.0 0.1
01:40 10.6 94.7 1012.5 1.3 NNE 2.5 NNE 0.0 0.1
01:45 10.6 94.6 1012.5 0.8 NE 2.8 ENE 0.0 0.1
01:50 10.7 94.6 1012.5 1.6 NW 3.9 NNW 0.0 0.1
01:55 10.8 94.8 1012.4 3.4 NNW 4.9 NNW 0.0 0.1
02:00 10.8 94.6 1012.3 0.9 NW 4.2 N 0.0 0.1
02:05 10.7 94.5 1012.3 0.2 NNW 3.5 NNE 0.0 0.1
02:10 10.7 94.6 1012.3 2.2 NE 5.3 NE 0.0 0.1
02:15 10.7 94.4 1012.2 0.9 NE 3.5 NE 0.0 0.1
02:20 10.6 94.3 1012.2 0.7 NNE 2.8 NNW 0.0 0.1
02:25 10.6 94.2 1012.2 3.4 NE 6.4 NNW 0.0 0.1
02:30 10.5 94.0 1012.2 3.9 NNE 7.4 NNE 0.0 0.1
02:35 10.4 93.8 1012.2 2.4 N 6.0 NNE 0.0 0.1
02:40 10.3 93.8 1012.1 4.7 N 7.4 NNE 0.0 0.1
02:45 10.4 93.8 1012.2 4.2 N 11.3 NNE 0.0 0.1
02:50 10.4 93.5 1012.1 2.3 N 8.1 NNW 0.0 0.1
02:55 10.2 93.2 1012.2 2.3 N 8.8 NNE 0.0 0.1
03:00 10.3 93.3 1012.1 3.2 N 8.8 NE 0.0 0.1
03:05 10.3 92.8 1012.1 5.0 NNE 9.5 NNE 0.0 0.1
03:10 10.3 92.4 1012.1 4.3 N 9.5 NNW 0.0 0.1
03:15 10.4 91.9 1012.1 4.1 N 9.9 NNE 0.0 0.1
03:20 10.5 91.4 1012.2 4.1 N 10.6 NE 0.0 0.1
03:25 10.4 90.6 1012.2 4.5 NNW 10.9 N 0.0 0.1
03:30 10.3 90.5 1012.2 3.1 NNW 7.4 N 0.0 0.1
03:35 10.2 90.5 1012.1 2.6 NNW 6.0 NNW 0.0 0.1
03:40 10.1 90.6 1012.1 0.7 N 4.2 N 0.0 0.1
03:45 10.0 90.5 1012.1 0.3 NW 2.5 NW 0.0 0.1
03:50 9.8 90.6 1012.1 1.0 NW 5.3 NNE 0.0 0.1
03:55 9.8 91.3 1012.1 2.7 N 7.1 NNE 0.0 0.1
04:00 9.8 91.5 1012.2 2.6 N 8.1 NNE 0.0 0.1
04:05 9.8 91.6 1012.2 1.9 NNW 5.3 N 0.0 0.1
04:10 9.7 91.6 1012.2 2.5 NNW 7.1 NNE 0.0 0.1
04:15 9.7 91.8 1012.1 3.1 NNW 7.1 NW 0.0 0.2
04:20 9.6 92.0 1012.0 3.0 NNW 5.3 NNW 0.0 0.5
04:25 9.7 92.2 1012.0 3.4 NNW 8.5 N 0.0 1.1
04:30 9.6 92.1 1012.1 3.9 N 9.9 N 0.0 2.0
04:35 9.8 92.2 1012.1 4.0 N 7.4 NNE 0.0 3.4
04:40 9.7 91.8 1012.1 1.6 NNW 5.6 0.0 5.1
04:45 9.5 91.6 1012.2 1.8 NNW 7.8 N 0.0 7.3
04:50 9.5 92.0 1012.2 3.7 NW 5.6 NW 0.0 9.7
04:55 9.6 92.3 1012.2 3.4 NW 7.1 NNW 0.0 12.1
05:00 9.5 92.2 1012.2 0.9 NNW 3.5 NNE 0.0 14.5
05:05 9.4 92.2 1012.2 1.5 NNW 3.9 NNW 0.0 17.3
05:10 9.4 92.4 1012.3 2.1 NNW 4.6 N 0.0 23.9
05:15 9.5 93.0 1012.3 2.6 NNW 6.4 N 0.0 33.7
05:20 9.8 93.4 1012.3 2.7 N 5.6 NNE 0.0 25.6
05:25 10.0 93.1 1012.4 5.1 N 8.1 NNW 0.0 54.9
05:30 10.2 92.6 1012.4 4.4 N 7.8 NW 0.0 113.7
05:35 10.5 92.2 1012.5 2.9 N 7.8 N 0.0 124.6
05:40 10.9 90.6 1012.6 4.7 NNW 9.5 N 0.0 133.9
05:45 11.2 89.4 1012.6 3.2 NNE 7.1 N 0.0 145.4
05:50 11.5 87.8 1012.6 3.9 NNE 7.4 NNW 0.0 159.3
05:55 11.8 86.1 1012.7 5.5 N 10.6 N 0.0 174.1
06:00 11.9 84.8 1012.6 3.8 NNE 9.5 NE 0.0 189.2
06:05 12.2 84.2 1012.6 4.9 N 8.8 NNW 0.0 203.8
06:10 12.5 83.4 1012.6 4.8 N 9.2 N 0.0 218.0
06:15 12.8 82.3 1012.7 4.7 N 9.2 N 0.0 232.8
06:20 13.2 82.3 1012.8 1.7 N 4.9 NNW 0.0 248.0
06:25 13.6 81.1 1012.8 0.5 NNE 3.2 N 0.0 263.3
06:30 14.1 80.3 1012.9 0.3 E 1.8 E 0.0 253.2
06:35 14.5 78.1 1012.9 1.6 SE 3.9 SE 0.0 302.0
06:40 14.6 78.6 1013.0 3.4 ESE 5.6 ESE 0.0 202.8
06:45 14.6 79.1 1013.0 6.5 ESE 13.1 SSE 0.0 129.7
06:50 14.4 79.0 1013.1 8.1 SE 13.4 SE 0.0 323.0
06:55 14.5 79.6 1013.2 6.1 E 10.2 ESE 0.0 364.9
07:00 14.7 80.1 1013.2 5.8 ESE 10.6 SE 0.0 388.9
07:05 14.8 80.6 1013.3 5.2 E 8.5 NE 0.0 440.0
07:10 14.8 79.6 1013.3 5.8 SE 9.5 SE 0.0 206.0
07:15 14.5 80.9 1013.4 2.0 ESE 6.0 ESE 0.0 225.3
07:20 14.6 81.1 1013.4 0.7 SE 3.9 SE 0.0 215.7
07:25 14.6 81.1 1013.5 3.4 SE 7.4 SSE 0.0 183.9
07:30 14.4 80.8 1013.5 2.6 S 5.3 S 0.0 134.7
07:35 14.3 81.5 1013.5 3.3 SSE 6.0 SSW 0.0 119.3
07:40 14.4 82.8 1013.5 2.7 S 5.6 SE 0.0 133.7
07:45 14.2 83.0 1013.4 4.4 SSE 7.1 SSE 0.0 154.9
07:50 14.1 83.1 1013.4 3.2 SE 4.9 SSE 0.0 179.5
07:55 14.1 83.1 1013.4 0.9 SE 2.8 SE 0.0 198.8
08:00 14.3 82.4 1013.4 1.8 SSE 4.9 SE 0.0 329.9
08:05 14.6 81.6 1013.4 1.8 SSE 6.7 S 0.0 409.1
08:10 14.8 79.7 1013.3 1.9 SE 6.0 SE 0.0 589.0
08:15 15.3 78.1 1013.4 3.4 SSE 8.1 SSE 0.0 570.3
08:20 15.3 76.4 1013.3 1.8 SW 4.9 S 0.0 413.7
08:25 15.6 75.3 1013.2 4.2 SSE 8.5 S 0.0 371.5
08:30 15.5 75.6 1013.2 6.0 S 9.9 S 0.0 448.6
08:35 15.3 76.8 1013.1 3.5 SSW 6.7 S 0.0 309.2
08:40 15.3 76.4 1013.1 3.4 SSW 6.7 SW 0.0 570.7
08:45 15.6 76.7 1013.1 1.7 S 4.6 SE 0.0 378.1
08:50 15.8 76.0 1013.1 5.3 S 12.4 SSW 0.0 259.7
08:55 15.4 76.2 1013.2 6.4 S 12.7 SE 0.0 418.9
09:00 15.3 77.4 1013.1 7.2 S 14.1 S 0.0 508.0
09:05 15.7 78.0 1013.2 7.2 SSW 13.4 SSE 0.0 785.5
09:10 16.1 75.5 1013.2 9.2 SE 14.1 SE 0.0 811.0
09:15 16.3 75.5 1013.2 7.8 SSE 13.8 SSE 0.0 837.0
09:20 16.4 75.2 1013.4 8.7 SSE 14.5 SSE 0.0 827.0
09:25 16.6 74.7 1013.4 7.9 SSE 13.4 SSE 0.0 836.0
09:30 16.8 73.0 1013.4 9.9 SSE 15.5 S 0.0 845.0
09:35 16.9 71.2 1013.3 10.7 SE 17.3 ESE 0.0 867.0
09:40 17.1 69.8 1013.4 6.0 SE 13.8 ESE 0.0 877.0
09:45 17.5 70.6 1013.3 6.7 S 14.5 SSE 0.0 919.0
09:50 17.7 68.5 1013.1 11.3 SSE 18.4 S 0.0 880.0
09:55 17.7 67.5 1013.1 9.3 SSE 16.9 S 0.0 775.4
10:00 17.3 67.9 1013.0 8.2 SSE 14.1 SE 0.0 516.5
10:05 17.6 67.6 1013.1 8.5 SSE 14.1 S 0.0 881.0
10:10 17.9 66.4 1013.0 7.2 S 13.1 S 0.0 887.0
10:15 18.2 65.9 1013.0 7.6 S 14.8 SSW 0.0 945.0
10:20 18.3 65.8 1012.9 7.8 S 13.4 S 0.0 954.0
10:25 18.4 64.5 1012.8 9.9 S 16.6 S 0.0 651.5
10:30 18.0 65.4 1012.9 12.7 SSE 20.5 S 0.0 933.0
10:35 18.1 65.4 1012.9 11.7 S 20.5 SSE 0.0 723.1
10:40 17.9 66.7 1012.9 11.0 SE 19.1 SE 0.0 806.0
10:45 18.3 66.1 1012.8 12.1 SSE 20.1 ESE 0.0 967.0
10:50 18.5 65.6 1012.7 9.0 SE 15.5 E 0.0 1082.0
10:55 18.7 65.8 1012.7 9.5 SSE 16.6 SSE 0.0 785.0
11:00 18.9 65.0 1012.6 9.0 SE 20.8 SE 0.0 817.0
11:05 18.9 65.1 1012.5 9.3 SE 16.9 SSE 0.0 622.9
11:10 18.6 66.1 1012.5 8.9 SSE 14.5 S 0.0 803.0
11:15 18.6 66.4 1012.5 9.1 S 17.6 S 0.0 683.6
11:20 18.3 66.0 1012.4 9.9 SSW 19.1 S 0.0 498.3
11:25 18.0 67.7 1012.4 10.0 SSE 18.7 S 0.0 885.0
11:30 18.3 66.2 1012.4 6.3 SSE 14.5 ESE 0.0 844.0
11:35 18.7 67.5 1012.3 7.8 SSE 18.4 SSE 0.0 791.0
11:40 18.7 65.7 1012.2 9.6 SE 20.5 SE 0.0 669.5
11:45 18.2 66.5 1012.1 11.2 SSE 19.8 SE 0.0 452.6
11:50 18.0 67.3 1012.2 8.0 SSE 15.5 SE 0.0 619.3
11:55 18.5 67.2 1012.3 9.3 SE 16.9 ESE 0.0 609.8
12:00 18.2 65.8 1012.3 8.7 S 19.1 SSE 0.0 340.2
12:05 17.7 67.3 1012.4 7.1 S 20.1 SE 0.0 330.6
12:10 17.5 66.7 1012.3 11.2 SE 19.8 SE 0.0 225.2
12:15 17.0 67.6 1012.3 13.4 SE 29.3 SE 0.0 225.8
12:20 16.9 67.5 1012.4 10.9 SSE 22.6 S 0.0 255.0
12:25 16.8 68.1 1012.4 12.4 SE 22.2 SSE 0.0 290.8
12:30 16.8 68.4 1012.5 9.4 SE 18.7 S 0.0 223.1
12:35 16.7 67.5 1012.5 10.4 SSE 22.2 SSE 0.0 261.7
12:40 16.5 67.7 1012.5 10.4 SSE 17.3 SE 0.0 298.4
12:45 16.5 68.1 1012.5 6.3 SE 10.9 SSE 0.0 342.5
12:50 16.8 67.4 1012.4 6.7 SSE 12.4 S 0.0 538.1
12:55 17.2 67.6 1012.4 5.8 SSE 16.2 ESE 0.0 613.0
13:00 17.6 65.4 1012.4 8.2 S 18.4 SSE 0.0 715.3
13:05 17.5 64.1 1012.3 5.7 ESE 10.2 SE 0.0 332.4
13:10 17.4 64.8 1012.2 9.2 ESE 14.8 ESE 0.0 329.0
13:15 17.2 66.1 1012.2 7.6 ESE 14.5 ESE 0.0 366.8
13:20 17.4 65.3 1012.2 7.6 ESE 15.9 ESE 0.0 550.2
13:25 17.7 65.2 1012.0 7.5 SE 13.4 SE 0.0 539.2
13:30 17.6 64.9 1012.0 10.8 SE 18.7 SE 0.0 737.2
13:35 17.8 64.3 1011.9 7.1 E 14.1 ESE 0.0 790.0
13:40 18.2 62.5 1012.0 6.0 SSW 16.6 S 0.0 697.2
13:45 18.1 62.5 1011.9 6.5 SE 16.6 SSE 0.0 665.4
13:50 18.3 62.7 1011.8 10.7 SSE 21.5 SSE 0.0 953.0
13:55 18.3 60.9 1011.8 4.6 ENE 11.6 SE 0.0 853.0
14:00 18.5 62.1 1011.6 8.6 SE 15.5 ESE 0.0 736.9
14:05 18.2 62.6 1011.6 9.9 ESE 21.2 ESE 0.0 746.0
14:10 18.4 62.7 1011.5 8.5 ESE 14.1 ESE 0.0 717.6
14:15 18.4 62.1 1011.4 5.2 ESE 10.2 SSE 0.0 560.1
14:20 18.4 62.0 1011.4 4.9 E 12.0 ESE 0.0 620.1
14:25 18.3 63.2 1011.3 8.9 SSE 17.3 S 0.0 692.1
14:30 18.0 64.0 1011.3 10.4 SSE 18.0 SE 0.0 651.0
14:35 17.7 65.1 1011.2 8.1 SSE 17.3 S 0.0 469.2
14:40 17.6 65.2 1011.2 10.5 SSE 17.6 S 0.0 451.9
14:45 17.3 66.0 1011.1 6.7 SSE 13.4 SSE 0.0 448.9
14:50 17.4 66.2 1011.2 5.4 S 13.4 ESE 0.0 552.9
14:55 17.7 66.0 1011.1 4.6 SE 14.1 SE 0.0 607.0
15:00 17.9 64.8 1011.2 8.9 SSE 17.6 SSE 0.0 550.3
15:05 17.7 65.3 1011.1 7.7 SSE 19.4 SE 0.0 425.3
15:10 17.5 66.1 1011.0 9.0 SE 15.9 SSE 0.0 376.8
15:15 17.4 66.9 1011.0 8.3 SSE 13.1 S 0.0 433.7
15:20 17.5 67.3 1011.1 7.8 SSE 15.5 SE 0.0 511.8
15:25 17.6 66.3 1011.1 8.2 SSE 15.2 SSE 0.0 472.1
15:30 17.6 67.5 1011.2 10.1 SSE 15.9 SE 0.0 539.9
15:35 17.6 68.3 1011.2 13.8 SSE 24.3 S 0.0 515.9
15:40 17.1 69.5 1011.2 11.3 S 22.2 S 0.0 424.2
15:45 16.9 69.7 1011.2 12.0 SSE 22.6 S 0.0 439.6
15:50 16.8 70.3 1011.2 9.9 SSE 16.2 SSE 0.0 423.9
15:55 16.7 71.2 1011.1 9.5 SSE 16.2 S 0.0 370.0
16:00 16.7 71.6 1011.1 8.5 SE 14.5 E 0.0 423.0
16:05 16.7 71.7 1011.1 7.7 SE 13.8 SE 0.0 358.1
16:10 16.8 72.3 1011.2 7.6 SE 12.7 ESE 0.0 371.6
16:15 16.7 71.8 1011.2 8.5 SE 14.5 SE 0.0 347.1
16:20 16.5 72.9 1011.2 3.5 ESE 9.5 ESE 0.0 317.5
16:25 16.9 72.7 1011.1 3.7 SSE 8.5 SE 0.0 339.8
16:30 16.7 72.8 1011.0 7.0 SE 12.4 SSE 0.0 306.7
16:35 16.6 73.3 1011.1 6.8 SE 11.3 SSE 0.0 337.8
16:40 16.7 72.9 1011.1 6.1 ESE 12.4 ENE 0.0 339.3
16:45 16.8 71.2 1011.1 8.0 ESE 13.1 SSE 0.0 266.5
16:50 16.7 70.9 1011.1 9.0 ESE 16.2 ESE 0.0 231.0
16:55 16.5 71.9 1011.1 6.2 ESE 9.9 SE 0.0 242.0
17:00 16.6 72.2 1011.1 6.4 E 13.1 ESE 0.0 255.9
17:05 16.6 72.3 1011.2 7.2 ESE 13.1 E 0.0 271.2
17:10 16.5 73.1 1011.1 8.7 SE 13.4 SE 0.0 235.3
17:15 16.2 74.2 1011.2 8.4 ESE 12.7 SE 0.0 221.3
17:20 16.2 74.2 1011.2 6.1 ESE 10.9 E 0.0 215.5
17:25 16.2 75.0 1011.2 6.7 ESE 9.9 ESE 0.0 247.9
17:30 16.2 74.8 1011.3 8.4 ESE 15.9 SE 0.0 231.9
17:35 16.2 74.5 1011.4 6.1 E 13.8 ESE 0.0 206.0
17:40 16.2 74.8 1011.3 7.6 ESE 13.4 E 0.0 129.9
17:45 16.0 75.4 1011.3 9.3 SE 15.2 ESE 0.0 91.7
17:50 15.7 76.6 1011.4 7.4 ESE 13.8 SE 0.0 80.1
17:55 15.6 76.7 1011.4 4.5 ESE 10.2 ESE 0.0 71.1
18:00 15.5 77.4 1011.4 6.2 ESE 12.0 ESE 0.0 63.2
18:05 15.4 77.5 1011.5 6.4 ESE 12.0 ESE 0.0 55.3
18:10 15.3 77.5 1011.5 6.0 E 11.6 ENE 0.0 48.8
18:15 15.4 77.9 1011.6 4.0 ESE 8.1 ENE 0.0 43.2
18:20 15.2 78.5 1011.6 5.4 SE 9.2 ESE 0.0 39.1
18:25 14.9 79.6 1011.6 5.6 SE 9.5 SE 0.0 35.1
18:30 14.8 80.3 1011.7 4.3 ESE 8.1 E 0.0 31.0
18:35 14.7 80.8 1011.8 4.8 SE 7.4 ESE 0.0 24.5
18:40 14.5 81.5 1012.0 5.5 SE 7.8 ESE 0.0 16.8
18:45 14.4 82.1 1011.9 5.0 SE 6.7 SE 0.0 11.3
18:50 14.3 82.4 1012.0 2.9 SE 4.9 ESE 0.0 7.1
18:55 14.2 82.5 1012.0 0.7 E 2.1 E 0.0 3.2
19:00 14.1 82.8 1012.0 1.1 NNE 3.2 NE 0.0 1.2
19:05 14.0 83.1 1012.0 2.6 NW 3.9 NNW 0.0 0.7
19:10 13.8 83.4 1012.0 2.5 NW 3.9 NW 0.0 0.3
19:15 13.7 83.9 1012.0 2.2 WNW 3.2 WNW 0.0 0.2
19:20 13.5 84.2 1012.0 0.9 NW 2.1 NW 0.0 0.1
19:25 13.3 84.5 1012.1 1.0 NW 2.8 NW 0.0 0.1
19:30 13.1 84.6 1012.2 1.6 SSW 6.4 S 0.0 0.1
19:35 13.0 86.5 1012.3 6.8 S 9.5 S 0.0 0.1
19:40 12.9 87.2 1012.4 2.0 W 7.1 SSE 0.0 0.1
19:45 12.9 87.5 1012.5 0.5 W 2.8 NW 0.0 0.1
19:50 12.9 87.8 1012.6 2.6 NW 4.2 NNW 0.0 0.1
19:55 12.9 87.6 1012.7 2.2 WNW 3.9 NNW 0.0 0.1
20:00 12.8 87.4 1012.8 2.0 W 4.2 W 0.0 0.1
20:05 12.7 87.6 1012.9 3.7 NW 4.9 NW 0.0 0.1
20:10 12.6 87.7 1012.9 2.5 NW 4.6 NW 0.0 0.1
20:15 12.5 87.7 1013.0 2.4 NNW 3.5 N 0.0 0.1
20:20 12.3 87.9 1013.1 2.4 NW 3.5 NW 0.0 0.1
20:25 12.2 88.0 1013.1 2.5 NW 3.9 NW 0.0 0.1
20:30 12.0 88.1 1013.1 1.3 NW 3.2 NW 0.0 0.1
20:35 11.9 88.5 1013.1 3.0 NW 5.3 NW 0.0 0.1
20:40 11.9 88.8 1013.1 3.6 NW 5.3 NNW 0.0 0.1
20:45 11.7 88.3 1013.2 3.6 NW 4.9 NW 0.0 0.1
20:50 11.8 88.9 1013.2 2.8 WNW 4.2 NNW 0.0 0.1
20:55 11.8 88.8 1013.2 2.9 NNW 4.2 NNW 0.0 0.1
21:00 11.8 88.9 1013.2 3.2 NW 4.6 NNW 0.0 0.1
21:05 11.8 89.0 1013.2 3.3 NNW 4.9 N 0.0 0.1
21:10 11.7 88.6 1013.2 2.9 NNW 5.3 NW 0.0 0.1
21:15 11.6 88.0 1013.1 3.7 NW 5.6 NW 0.0 0.1
21:20 11.5 87.8 1013.1 3.1 NW 6.7 NNW 0.0 0.1
Máxima 18.9 94.8 1013.5 13.8 SSE 29.3 SE 0.0 1082.0
Mínima 9.4 60.9 1011.0
Total 0.0